Temp_Advection
nan nan nan nan nan nan nan nan nan nan nan nan nan nan nan nan nan nan nan nan nan nan nan nan nan nan nan nan nan nan nan nan nan nan nan nan nan nan nan nan nan nan nan nan nan nan nan nan nan nan nan nan nan nan nan nan nan nan nan nan nan nan nan nan nan nan nan nan nan
nan 0 0 0 -0 -0 -1 -1 -0 0 0 -0 -0 -0 -0 0 -0 -0 0 1 1 1 1 0 1 1 1 1 1 1 1 0 -0 -0 0 0 1 1 1 1 1 1 1 1 1 1 1 1 1 1 1 0 0 0 0 0 0 -0 -0 -0 -0 -0 -0 -0 -0 -0 -0 -0 nan
nan 0 0 -0 -0 -1 -1 -1 -0 -0 0 0 -0 0 0 1 0 0 0 1 1 1 1 1 0 1 1 1 1 1 1 1 0 0 0 0 0 0 1 1 1 1 1 1 1 1 1 1 1 1 1 0 0 0 0 0 0 0 -0 -0 -0 -0 -0 -0 -0 0 -0 -0 nan
nan -0 -0 -1 -1 -1 -1 -1 -1 -0 -0 -0 -0 -0 0 1 1 1 1 1 1 1 1 1 1 1 1 2 2 2 2 2 2 1 1 1 0 0 0 0 0 0 0 0 1 1 1 1 1 1 1 0 -0 -0 -0 -0 -0 0 -0 -0 -0 0 0 0 0 0 0 -0 nan
nan -1 -1 -1 -1 -1 -1 -0 -0 -0 -0 -0 -0 -0 0 1 1 1 1 1 1 1 2 2 2 2 2 2 2 2 2 2 2 2 1 1 1 0 0 0 0 0 0 0 0 0 0 0 1 1 1 0 -0 -0 -0 -0 -0 -0 -0 0 0 0 1 1 1 1 0 0 nan
nan -1 -1 -1 -1 -0 -0 -0 -0 -0 -0 -1 -1 -0 0 1 1 2 2 2 2 2 2 2 2 2 2 1 1 1 2 2 2 2 2 1 1 1 1 1 1 1 0 0 0 0 0 0 0 1 0 0 -0 -0 -0 -0 -0 -0 -0 0 0 1 1 1 1 1 0 0 nan
nan -1 -1 -0 -0 -0 -0 -0 -0 -0 -1 -1 -0 0 1 1 1 2 2 2 2 2 2 2 2 1 1 0 0 1 1 1 2 2 2 2 2 2 2 2 2 2 2 2 1 1 1 0 0 0 0 0 0 -0 -0 -0 0 0 0 0 1 1 1 1 1 0 0 0 nan
nan -1 -1 -0 -0 -0 -0 -0 -0 -1 -1 -1 0 1 1 1 1 1 1 1 1 2 2 2 1 1 1 1 1 1 1 1 1 2 2 3 3 3 3 3 3 3 3 3 3 2 1 1 1 0 0 0 0 0 0 0 1 1 1 0 0 0 0 0 0 0 0 0 nan
nan -0 -0 -0 -0 -0 -0 -0 -0 -0 -0 0 1 1 1 1 1 1 1 1 1 2 2 1 1 1 1 1 1 1 1 1 2 2 2 3 3 3 4 4 4 3 3 3 3 2 2 2 1 1 1 1 0 0 1 1 1 1 0 0 0 0 0 1 1 1 1 0 nan
nan -0 -0 -0 -0 0 0 -0 -0 -0 -0 0 1 1 1 1 1 1 1 1 1 1 1 1 1 1 1 1 1 1 1 2 2 2 3 3 3 4 4 3 2 2 1 1 2 2 2 2 1 1 1 1 1 0 0 0 0 0 0 0 0 1 1 1 1 1 0 0 nan
nan -1 -0 -0 -0 0 -0 -0 -0 -0 0 1 1 1 1 1 1 0 0 1 1 1 0 1 1 1 1 0 0 1 1 2 1 2 2 3 3 3 2 1 -0 -0 0 0 1 1 1 1 0 0 0 0 0 0 0 0 0 0 0 1 1 1 0 0 0 0 0 1 nan
nan -0 -0 -0 -0 -0 -0 -1 -0 0 0 1 1 1 1 1 1 0 0 1 0 0 0 1 1 1 1 0 1 1 1 1 1 2 2 2 2 2 1 -0 -0 0 0 -0 -0 -0 -1 -1 -0 -0 0 0 1 1 1 1 1 1 1 1 0 0 0 0 0 0 0 0 nan
nan -0 0 0 -0 -0 -1 -1 -0 0 0 1 1 1 1 0 0 0 0 0 0 0 0 1 1 1 1 1 1 1 1 1 1 2 2 2 2 2 1 0 1 1 1 0 -0 -1 -1 -0 0 0 1 1 1 1 1 1 1 1 0 0 0 0 0 0 0 0 0 0 nan
nan -0 0 -0 -0 -1 -1 -0 -0 0 1 1 1 1 0 0 0 0 0 0 0 0 0 0 1 1 1 0 1 1 1 1 1 2 2 2 2 2 1 1 1 1 1 1 1 1 0 0 0 1 1 1 1 1 1 1 1 0 0 0 0 0 0 0 0 0 0 0 nan
nan -0 -0 -0 -1 -1 -0 -0 0 0 1 1 1 1 0 0 0 0 0 0 0 0 0 0 0 0 1 0 1 1 1 1 1 1 1 2 1 1 1 1 1 1 1 1 1 1 1 1 1 1 1 1 1 1 1 1 0 0 0 0 1 1 0 0 0 0 0 0 nan
nan -0 -0 -1 -1 -0 -0 0 0 0 0 1 1 1 0 0 0 1 0 0 0 0 0 0 0 0 0 0 0 1 1 1 0 0 0 0 -0 0 0 1 1 0 0 1 1 1 1 1 1 1 1 1 1 1 1 1 1 1 1 1 1 1 1 1 1 1 1 1 nan
nan -0 -0 -1 -1 -0 -0 0 0 0 0 1 1 0 0 0 0 0 0 0 0 0 0 0 0 0 0 0 0 0 0 0 -0 -0 -0 -0 -1 -1 -1 -0 -0 -0 -0 0 0 1 1 1 1 1 1 1 1 1 1 1 1 1 1 1 1 1 1 1 1 1 1 1 nan
nan -0 -0 -1 -0 -0 -0 0 0 0 0 0 0 0 0 0 0 0 0 0 0 0 0 0 0 0 0 0 -0 -0 0 -0 -0 0 0 -0 -0 -1 -1 -1 -1 -1 -0 0 0 0 -0 0 0 0 0 0 0 0 0 1 1 1 1 1 0 0 0 0 0 0 0 0 nan
nan -0 -1 -0 -0 -0 0 0 0 0 0 0 0 0 0 0 0 0 0 0 0 0 0 0 0 0 0 0 0 0 -0 -0 -0 0 0 -0 -0 -1 -1 -1 -2 -1 -1 -0 -0 -0 -1 -1 -1 -1 -0 -0 -0 -0 -0 -0 -0 -0 -0 -0 -0 -0 -0 -0 -0 0 -0 -0 nan
nan -0 -0 -0 -0 -0 0 0 0 0 0 0 0 0 0 0 0 0 0 0 0 0 0 0 -0 -0 0 0 0 0 0 -0 -0 -0 -0 -0 -0 -0 -0 -0 -1 -1 -1 -1 -0 -0 -0 -1 -1 -1 -1 -1 -1 -1 -1 -1 -0 -0 -0 -0 -0 -0 -0 -0 -0 -0 -0 -0 nan
nan -0 -0 -0 -0 -0 0 0 0 0 0 0 0 0 0 0 0 0 0 0 0 0 0 0 0 -0 0 0 0 0 0 -0 -0 -0 -0 -0 -0 -0 -0 -0 -0 -0 -0 -1 -1 -0 0 0 -0 -0 -0 -1 -1 -1 -1 -1 -1 -1 -1 -1 -0 -0 -0 -0 -0 -0 -0 -0 nan
nan -0 -0 -0 -0 0 0 0 1 1 0 0 0 0 0 0 0 0 0 0 0 0 0 0 0 -0 -0 -0 0 0 0 0 0 0 0 -0 -0 -0 -0 -0 -0 -0 -0 -0 -1 -0 0 0 0 0 0 -0 -0 -0 -1 -1 -1 -1 -1 -1 -0 -0 -0 -0 -0 -0 -0 -0 nan
nan 0 -0 -0 0 0 0 1 1 0 0 0 0 0 0 0 0 -0 -0 0 0 0 0 0 0 0 0 -0 -0 0 0 0 0 0 0 0 0 0 0 0 -0 -0 -0 0 -0 -1 -1 -0 0 0 0 0 0 -0 -0 -1 -1 -1 -1 -1 -1 -1 -1 -1 -1 -1 -1 -1 nan
nan 0 -0 -0 0 0 0 0 0 0 0 0 0 0 0 0 0 -0 -0 -0 -0 -0 -0 -0 0 0 0 0 -0 -0 0 0 0 0 0 0 0 0 0 0 -0 -0 -0 -0 0 -0 -1 -1 -1 -0 -0 -0 0 0 -0 -0 -0 -1 -1 -1 -1 -1 -1 -1 -1 -1 -1 -1 nan
nan -0 -0 -0 0 0 0 0 0 0 0 0 0 0 0 0 0 -0 -0 -0 -0 -0 -0 -0 -0 0 0 0 0 -0 -0 0 0 0 0 0 0 0 0 0 0 -0 -0 0 0 -0 -0 -1 -1 -1 -1 -0 -0 -0 -0 -0 -0 -0 -0 -1 -1 -1 -1 -1 -1 -1 -1 -1 nan
nan -0 -0 0 0 0 0 0 0 0 0 0 0 0 0 0 0 0 0 -0 -0 -0 -0 -0 -0 -0 -0 0 -0 -0 -0 -0 -0 0 0 0 0 0 0 0 0 0 0 0 0 0 1 -0 -0 -1 -1 -1 -1 -1 -0 -0 -0 -0 -0 -0 -0 -0 -1 -1 -1 -1 -1 -1 nan
nan -1 -0 0 0 0 0 -0 -0 -0 0 0 0 0 0 0 0 0 0 0 -0 -0 -0 -0 -0 -0 -0 -0 -0 -0 -0 -0 -0 -0 0 0 0 0 -0 0 0 0 0 0 0 0 0 0 -0 -0 -0 -1 -1 -1 -1 -1 -0 -0 -0 -0 -0 -0 -0 -0 -1 -1 -1 -1 nan
nan -0 0 0 0 0 0 -0 -0 -0 -0 -0 -0 -0 0 0 0 0 0 0 0 -0 -0 -0 -0 -0 -0 -0 -0 -0 -0 -0 -0 -0 -0 -0 -0 0 0 0 0 0 0 0 0 0 0 0 -0 -0 -0 -0 -0 -1 -1 -1 -1 -0 -0 -0 -0 -0 -0 -0 -0 -0 -0 -0 nan
nan 0 0 0 0 0 0 0 -0 -0 -0 -0 -0 0 0 0 0 0 0 0 0 0 -0 -0 -0 -0 -0 -0 -0 -0 -0 -0 -0 -0 -0 -0 -0 -0 -0 0 -0 0 0 -0 -0 -0 -0 -0 -0 -0 -0 -0 -0 -0 -0 -0 -0 -0 -0 -0 -0 -0 -0 -0 -0 -0 -0 -0 nan
nan 0 0 0 0 0 0 0 -0 -0 0 0 0 0 0 0 0 0 -0 -0 -0 -0 0 0 0 0 -0 -0 -0 -0 -0 -0 -0 -0 -0 -0 -1 -0 -0 -0 -0 -0 -0 -0 -0 0 -0 -0 -0 -0 -0 -0 -0 -0 -0 -0 -0 -0 -0 -0 -0 -0 -0 -0 -0 -0 -0 -0 nan
nan 0 0 0 0 0 0 0 0 0 0 0 0 0 -0 0 0 0 -0 -0 -0 -0 -0 0 0 0 0 -0 -0 -0 -0 -0 -0 -0 -0 -0 -0 -0 -0 -0 -0 -0 -1 -1 0 0 -0 -0 -0 -0 -0 -0 -0 -0 -0 -0 -0 -0 -0 -0 -0 -0 -0 -0 -0 -0 -0 -0 nan
nan 0 0 0 0 0 0 0 0 0 0 0 0 0 -0 -0 0 0 0 -0 -0 -0 -0 -0 -0 0 -0 -0 -0 -0 -0 -0 -0 -0 -0 -0 -0 -0 -0 -0 -0 -1 -1 -1 0 0 -0 -0 -0 -0 -0 -0 -0 -0 -0 -0 -0 -0 -0 -0 -0 -0 -0 -0 -0 -0 -0 -0 nan
nan 0 0 0 0 0 0 0 0 0 0 0 0 0 -0 -0 -0 0 0 -0 -0 -0 -0 -0 -0 -0 -0 -0 -0 -0 -0 -0 -0 -0 -0 -0 -0 -0 -0 -0 -0 -1 -0 -0 -1 -0 0 -0 -0 -0 -0 -0 -0 -0 -0 -0 -0 -0 -0 -0 -0 -0 -0 -0 -0 -0 -0 -0 nan
nan 0 0 0 0 0 0 0 0 0 0 0 0 0 0 -0 -0 -0 -0 -0 -0 -0 -0 -0 -0 -0 -0 -0 -0 -0 -0 -0 -0 -0 -0 -0 -0 -0 -0 -0 -0 -0 -0 -0 -1 -1 0 0 0 -0 -0 -0 -0 -0 -0 -0 -0 -0 -0 -0 -0 0 0 0 -0 -0 -0 -0 nan
nan 0 0 0 0 0 0 0 0 0 0 0 0 0 0 0 -0 -0 -0 0 -0 -0 -0 -0 -0 -0 -0 0 -0 -0 -0 -0 -0 -0 -0 -0 -0 -1 -0 -0 -0 -0 -0 -0 -0 -1 -0 0 0 -0 -0 -0 -0 -0 -0 -0 -0 -0 -0 -0 -0 -0 -0 0 0 -0 -0 -0 nan
nan 0 0 0 0 0 0 0 0 0 0 0 0 0 0 0 0 -0 -0 0 0 0 -0 -0 -0 -0 -0 -0 -0 -0 -0 -0 -0 -0 -0 -0 -0 -1 -1 -1 -0 -0 -0 -0 0 -0 -1 0 0 0 0 -0 -0 -0 -0 -0 -0 -0 -0 -0 -0 -0 -0 0 0 -0 -0 -0 nan
nan 0 0 0 0 0 0 0 0 0 0 0 0 0 0 0 0 -0 -0 -0 0 0 0 -0 -0 -0 -0 -0 -0 -0 -0 -0 -0 -0 -0 -0 -0 -0 -1 -1 -1 -1 -1 -0 0 -0 -1 -0 0 0 0 -0 -0 -0 -0 -0 -0 -0 -0 -0 -0 -0 -0 0 0 0 -0 -0 nan
nan 0 0 0 0 0 0 0 0 -0 -0 0 0 0 0 0 0 -0 -0 -0 0 0 0 0 -0 -0 -0 -0 -0 0 0 -0 -0 -0 -0 -0 -0 -0 -1 -1 -1 -1 -1 -1 -0 -0 -0 -1 -0 0 -0 -0 -0 -0 -0 -0 -0 -0 -0 -0 -0 -0 -0 0 0 0 0 -0 nan
nan 0 0 0 0 0 0 0 0 0 -0 -0 0 0 0 0 0 0 -0 -0 0 0 0 0 0 -0 -0 -0 0 0 0 0 0 -0 -0 -0 -0 -0 -0 -1 -1 -1 -1 -1 -1 -0 0 -1 -1 -0 -0 -0 -0 -1 -1 -0 -0 -0 -0 -0 -0 -0 0 0 0 0 -0 -0 nan
nan 0 0 0 0 0 0 0 0 0 0 -0 -0 0 0 0 0 0 0 -0 -0 0 0 0 0 0 0 0 0 0 0 0 0 0 -0 -0 -0 -0 -0 -0 -0 -0 -0 -1 -1 -0 -0 -0 -0 -0 -0 -0 -0 -1 -0 -0 -0 -0 -0 -0 -0 -0 -0 0 0 -0 -0 -1 nan
nan nan nan nan nan nan nan nan nan nan nan nan nan nan nan nan nan nan nan nan nan nan nan nan nan nan nan nan nan nan nan nan nan nan nan nan nan nan nan nan nan nan nan nan nan nan nan nan nan nan nan nan nan nan nan nan nan nan nan nan nan nan nan nan nan nan nan nan nan
Wind_Speed
34 33 33 32 32 31 30 29 28 27 27 27 27 28 29 30 31 32 33 33 34 34 36 36 37 37 38 38 38 38 38 38 38 38 37 37 37 38 38 38 38 37 36 35 34 32 31 29 27 26 24 23 22 21 20 19 19 19 19 19 19 19 19 19 19 19 19 19 19
33 32 32 31 31 30 29 27 26 26 25 25 26 27 29 30 31 32 33 34 34 35 36 37 37 38 38 38 38 39 39 39 39 39 39 40 40 40 40 40 39 38 37 36 35 33 31 29 28 26 24 23 22 21 20 19 19 19 20 20 19 19 19 20 19 19 19 19 20
32 32 32 31 30 29 27 26 25 25 24 24 25 27 29 31 31 32 33 34 35 35 36 37 38 38 38 38 39 40 40 41 41 41 42 42 42 42 42 41 41 40 38 37 35 33 32 30 28 26 25 24 23 22 21 20 20 20 20 20 20 20 20 19 19 19 19 19 20
32 32 31 30 29 27 26 25 24 24 23 23 25 27 29 31 32 32 33 35 36 37 37 37 37 37 38 39 40 41 42 42 42 43 44 44 45 44 44 43 42 41 39 37 36 34 32 30 28 27 26 25 24 24 23 21 21 21 21 21 21 20 20 19 19 19 19 19 20
32 31 31 30 28 26 25 24 23 23 23 23 25 27 29 30 31 32 33 35 37 38 38 37 38 38 38 39 40 42 43 44 44 44 45 46 46 46 45 44 43 42 40 38 36 34 32 30 29 27 27 26 26 25 24 23 22 22 22 21 21 20 20 19 19 18 18 18 17
32 31 31 29 27 26 24 23 23 22 22 23 26 28 29 30 31 32 34 36 38 39 39 38 37 37 38 40 41 43 44 45 46 47 47 48 48 47 47 46 44 43 41 39 37 34 32 30 29 27 26 26 26 25 24 23 22 22 21 21 20 20 19 18 17 17 16 16 15
31 31 30 29 27 25 24 23 22 22 22 24 26 28 29 30 31 32 34 37 39 40 39 37 37 37 38 40 41 43 44 46 47 48 49 49 49 48 48 47 45 43 41 39 36 33 31 29 28 27 26 25 24 23 22 21 21 20 20 19 19 18 18 16 16 15 14 14 13
31 30 29 28 26 25 24 23 23 23 23 25 26 28 29 29 31 33 35 38 39 39 37 36 36 37 38 40 41 43 45 46 48 49 50 50 51 50 50 48 46 43 40 36 32 29 27 26 25 25 24 22 21 20 19 18 18 18 17 17 17 16 15 14 13 12 12 12 12
31 30 29 28 26 25 24 23 23 23 24 25 26 27 28 29 31 33 36 38 38 37 35 35 35 37 38 40 41 43 44 46 47 49 50 50 51 52 51 49 46 42 36 29 24 21 20 20 19 19 18 17 17 16 16 15 14 14 14 15 15 14 12 11 10 11 12 13 14
31 30 29 27 26 24 23 23 23 24 24 25 26 27 28 29 32 34 37 38 37 35 33 33 35 37 38 40 41 42 44 45 47 49 50 50 51 51 51 49 45 39 30 22 17 15 14 14 13 13 13 12 13 13 13 12 11 11 12 12 11 11 11 11 12 14 16 17 17
30 29 28 27 25 24 23 24 24 24 25 26 27 27 29 30 33 35 37 36 34 32 32 33 35 36 38 39 40 41 42 44 46 48 49 50 50 50 50 47 43 35 27 19 16 14 13 12 11 10 10 10 11 11 10 10 9 10 10 10 11 13 15 16 18 19 19 20 20
30 29 27 25 24 23 23 24 24 25 25 26 27 28 30 32 34 36 36 34 32 31 31 33 34 36 37 39 40 40 41 43 45 46 48 50 50 49 48 46 42 35 28 22 19 17 15 13 12 11 11 10 10 10 10 10 11 11 11 11 13 15 16 17 18 19 19 20 21
29 28 26 24 23 23 23 24 25 25 26 27 28 29 31 33 35 35 34 32 30 30 31 33 34 35 37 38 38 39 40 41 43 45 47 48 48 47 46 45 43 38 33 29 26 23 21 19 18 17 16 15 15 14 15 15 15 15 14 13 13 13 13 14 14 15 16 17 18
28 26 25 23 23 23 23 24 24 25 26 27 28 30 32 34 34 33 31 29 29 30 31 32 34 35 36 36 37 38 39 40 42 43 45 47 47 46 44 44 44 42 39 36 34 32 30 28 27 25 24 23 22 22 21 21 21 20 19 18 17 16 15 14 14 14 15 15 16
27 25 24 22 22 22 23 24 24 25 26 27 29 30 32 33 33 31 29 28 28 29 31 32 33 34 35 35 36 37 38 39 40 42 44 45 46 45 43 41 43 43 42 40 38 37 36 35 33 32 31 29 28 27 26 26 25 24 24 23 23 21 20 19 19 19 19 19 19
26 24 23 22 21 22 22 23 24 25 26 27 28 30 32 32 31 28 27 27 28 29 31 32 33 34 34 34 34 36 37 38 39 40 42 44 45 44 42 40 41 42 42 41 39 38 37 36 35 34 32 31 30 29 28 27 26 26 26 25 24 23 23 22 22 22 23 24 23
25 23 22 21 21 21 22 22 23 24 25 27 28 30 31 31 28 26 25 26 27 29 30 32 33 33 34 33 34 35 36 37 38 39 40 41 42 43 42 40 39 40 41 39 38 37 35 34 33 31 30 29 28 27 26 26 25 25 24 23 22 21 20 20 20 21 22 23 24
24 22 21 20 20 21 21 22 23 24 25 26 28 29 30 29 27 25 24 25 27 29 30 31 32 33 33 33 33 33 35 36 37 38 39 39 40 40 40 40 39 38 38 37 36 35 34 32 30 29 28 27 26 25 24 23 22 21 20 19 18 17 16 16 16 17 18 20 22
23 21 20 20 20 20 21 21 22 23 24 25 27 28 28 27 25 24 24 25 27 28 30 31 32 32 32 32 32 32 33 34 35 36 37 37 38 38 38 38 37 37 36 34 33 32 31 30 28 27 26 25 24 23 22 21 20 19 18 16 15 14 14 13 13 14 15 16 18
22 20 19 19 19 20 20 21 21 22 23 25 26 27 27 26 24 24 24 25 26 28 29 30 31 32 31 31 31 31 31 32 33 34 35 36 36 36 36 36 36 35 35 34 32 30 29 28 27 25 24 23 23 22 21 20 19 18 17 16 15 14 13 13 12 12 13 14 16
21 19 19 18 19 19 19 20 20 21 22 24 25 27 27 26 24 23 23 24 26 27 28 29 31 31 31 31 31 30 30 30 31 32 33 34 34 35 35 35 35 34 34 34 32 30 28 26 25 24 24 23 22 22 21 20 20 19 19 18 17 16 15 14 13 13 13 14 15
21 19 18 18 18 18 18 18 19 20 22 23 25 26 26 25 24 23 23 23 25 26 27 28 30 30 31 31 30 29 29 28 28 29 30 31 32 33 33 33 34 33 32 32 32 31 29 27 25 24 23 23 22 22 21 21 21 21 21 20 19 18 17 16 15 14 14 14 15
20 18 17 17 16 16 17 17 18 20 21 23 24 25 26 25 24 23 22 23 24 25 26 27 28 29 30 30 29 29 28 28 28 28 28 29 30 30 31 32 33 32 31 30 30 30 29 28 26 25 23 22 22 21 21 21 21 21 21 21 20 20 19 18 17 17 16 16 16
21 19 17 16 16 16 16 17 18 19 21 22 24 25 25 26 25 24 23 22 23 24 25 26 27 28 28 29 28 28 28 28 29 28 28 27 27 28 29 30 31 31 30 29 29 29 29 29 27 25 24 23 21 21 20 20 20 20 20 21 21 20 20 20 19 19 19 18 17
22 19 17 16 15 15 16 16 17 19 20 22 23 24 25 25 25 25 23 22 23 23 24 25 26 27 28 28 28 28 28 28 29 30 29 28 27 27 27 27 28 28 27 27 28 28 29 29 28 26 25 24 22 21 20 20 20 20 20 20 20 20 20 20 20 20 21 20 19
23 21 18 16 15 15 15 16 17 18 19 21 22 23 24 25 25 25 24 23 23 23 23 25 25 26 27 27 27 27 28 28 28 29 30 30 29 28 27 26 25 25 24 25 27 28 29 29 28 27 26 25 24 23 22 21 21 20 20 20 20 20 20 20 20 20 21 21 20
24 22 19 17 16 15 16 16 16 17 19 20 21 23 24 24 25 25 25 24 23 23 23 24 25 26 26 26 27 27 27 27 28 28 29 30 30 30 29 27 24 23 22 23 26 29 29 29 29 28 27 26 26 25 25 24 23 22 22 21 21 20 20 20 20 20 20 20 21
24 22 20 18 17 16 16 16 16 17 18 20 21 22 23 24 24 25 25 25 24 23 23 23 24 25 25 25 26 26 27 27 27 27 28 28 29 30 30 29 26 24 22 22 25 28 29 29 29 28 28 27 27 26 26 26 25 25 24 24 23 22 21 20 19 19 19 20 21
24 23 21 20 18 18 17 17 17 17 18 19 20 21 22 23 23 24 24 25 25 25 24 24 24 24 24 24 25 25 25 26 26 27 27 27 28 28 29 30 30 27 24 22 24 28 30 30 29 28 28 27 27 27 27 27 26 26 26 26 25 24 23 22 20 19 19 20 21
24 23 22 21 20 20 19 18 18 18 18 18 19 20 21 22 23 23 24 24 25 25 25 24 24 23 23 24 24 24 24 25 25 26 26 27 27 28 28 29 31 31 28 23 23 26 29 30 30 29 28 28 27 27 27 27 27 27 27 27 26 26 25 24 22 21 19 19 19
23 23 23 23 22 21 21 20 19 18 18 17 18 19 20 21 22 23 23 24 24 25 25 25 24 24 23 23 23 23 23 23 24 25 25 26 27 27 27 27 28 30 29 27 23 24 27 30 30 30 29 28 28 28 28 27 27 27 27 27 27 27 27 26 25 23 21 19 18
23 24 24 24 24 23 22 21 20 19 18 17 17 18 19 20 22 22 22 23 23 24 25 25 25 25 24 23 23 22 22 22 23 23 24 25 26 26 27 27 26 27 28 29 26 23 25 29 31 30 29 29 28 28 28 28 28 28 27 27 27 28 28 27 27 25 22 19 18
23 24 24 24 25 24 24 23 22 20 18 17 16 16 18 19 21 21 22 22 22 23 24 25 26 25 25 24 23 23 22 22 22 22 23 23 24 25 26 27 26 26 27 28 28 25 24 26 30 31 30 29 29 28 28 28 29 28 28 28 28 28 28 28 27 26 24 21 18
23 24 24 25 25 25 25 24 23 21 19 17 15 15 16 18 20 21 22 22 22 22 23 24 25 25 25 24 23 23 22 21 21 21 21 22 23 24 25 26 26 26 26 26 27 26 24 24 28 31 31 30 29 29 29 29 29 29 29 29 28 28 28 28 28 27 25 23 20
23 24 24 25 25 25 25 25 24 22 20 17 15 15 15 17 19 21 22 22 21 21 21 22 24 24 24 24 23 23 22 22 21 20 21 21 22 23 24 25 25 26 26 26 26 26 25 23 26 29 31 31 30 29 29 29 30 30 30 29 29 29 29 28 28 28 27 25 22
23 24 24 25 25 26 26 25 25 23 21 19 16 15 15 16 18 20 21 22 21 20 20 21 22 23 24 24 24 23 23 22 21 21 20 20 21 22 23 24 24 25 26 25 25 26 26 25 25 27 30 31 30 29 29 29 30 30 30 30 30 30 29 29 29 28 28 27 25
22 23 24 25 25 26 26 26 25 24 23 20 18 16 15 16 17 19 20 22 21 21 20 20 21 23 24 24 24 23 23 22 22 21 20 20 20 21 22 23 23 24 25 25 24 25 26 26 24 26 29 30 30 29 29 29 30 31 31 31 30 30 30 29 29 29 29 28 27
22 23 24 25 25 25 26 26 25 25 24 22 19 17 16 16 16 18 20 21 22 21 20 19 20 21 22 23 23 23 23 22 22 21 20 19 19 20 21 22 22 23 23 24 23 24 25 26 25 26 28 29 30 30 29 28 29 31 31 31 31 31 30 30 30 29 30 29 29
22 23 23 24 25 25 25 25 25 25 24 23 21 18 17 16 16 17 19 20 21 21 20 18 19 20 21 22 22 22 22 22 22 22 21 20 19 19 20 21 21 22 22 22 22 23 24 25 26 27 27 28 29 29 29 28 29 30 31 32 32 32 31 31 31 30 31 30 30
22 22 23 24 24 25 25 25 25 25 24 23 22 20 18 17 16 17 18 19 20 20 19 18 17 18 20 21 21 21 21 22 22 22 22 21 19 19 19 19 20 20 20 21 21 21 22 24 26 27 27 27 28 29 28 28 28 29 31 32 32 32 32 32 32 31 31 31 31
21 22 23 23 24 24 25 25 25 25 24 24 23 21 20 18 17 16 17 18 19 19 19 17 17 18 20 21 21 20 20 20 22 23 23 22 21 19 19 19 19 19 20 20 20 20 21 22 24 26 27 27 27 27 28 27 27 28 30 31 32 33 33 33 33 32 32 32 31
Wind_Direction
352 352 352 351 351 352 353 354 355 355 356 357 0 2 3 2 360 357 355 353 349 346 343 342 340 339 337 336 334 333 332 331 331 331 329 328 327 325 323 321 320 318 317 316 316 317 317 318 318 317 314 312 312 312 314 317 321 324 325 326 327 328 329 329 329 329 327 323 318
353 352 352 352 352 353 354 355 356 356 357 0 3 5 5 3 359 357 354 351 348 345 343 341 340 339 337 335 333 333 333 333 332 331 330 328 328 327 325 323 321 319 317 316 315 315 315 316 316 315 314 313 314 316 318 322 325 326 326 328 331 332 332 330 328 326 321 314 309
353 353 353 354 355 355 356 357 357 358 359 3 7 8 7 4 0 356 353 350 348 346 344 342 340 338 336 335 335 336 336 334 332 330 329 328 327 327 326 324 322 320 318 316 315 314 314 314 314 313 311 312 316 319 322 326 328 327 326 328 330 331 330 327 325 322 315 309 305
354 355 355 356 357 357 358 358 358 359 1 5 8 9 8 4 1 357 352 350 348 347 345 342 340 337 336 337 339 340 339 337 333 330 329 328 327 326 325 324 323 321 319 317 315 314 314 314 313 311 311 313 317 321 324 326 328 328 327 328 329 330 328 326 323 319 314 310 308
356 357 357 358 358 358 359 359 0 1 3 6 8 8 6 4 1 357 353 350 349 348 346 343 341 340 340 342 344 344 342 339 335 332 331 329 328 326 325 323 322 320 319 317 315 314 314 313 312 311 311 313 316 319 322 325 328 329 329 330 331 331 330 328 324 320 317 316 316
357 358 358 359 359 359 360 1 2 3 4 7 8 7 5 3 0 357 353 351 350 349 348 345 344 344 345 348 348 346 344 341 339 337 335 332 330 328 326 324 322 320 318 317 315 314 313 312 311 310 310 312 313 316 321 325 327 329 330 332 333 333 331 329 326 324 322 322 326
358 359 359 359 359 1 2 3 4 5 6 7 7 6 4 2 359 356 354 352 351 351 349 347 347 349 350 350 349 348 346 345 344 343 340 337 335 332 330 328 326 324 321 319 317 315 313 312 310 309 310 310 311 315 321 326 328 330 332 334 334 333 330 329 329 329 330 334 342
359 360 0 360 1 2 4 5 5 6 7 8 7 5 3 1 358 355 353 352 352 352 351 350 351 352 353 352 351 350 350 350 349 348 347 344 341 340 338 336 334 332 330 327 323 320 317 314 312 311 311 312 313 318 324 329 331 332 335 336 334 333 332 334 337 342 348 357 4
0 1 1 1 2 4 6 7 7 7 8 8 7 5 2 359 356 354 353 353 353 353 354 354 355 356 356 356 355 355 355 355 354 353 352 351 349 348 347 347 346 344 343 341 338 333 329 324 320 318 319 319 322 327 331 334 335 336 336 335 335 339 346 355 4 13 21 25 26
1 2 2 3 4 6 7 8 9 9 9 8 7 4 1 358 355 354 354 354 354 355 357 358 358 359 359 359 359 359 0 1 0 359 358 357 357 357 358 359 359 359 358 359 0 359 354 347 341 337 337 336 335 337 338 339 340 340 341 343 352 8 25 39 45 47 46 44 39
2 3 4 4 5 7 9 10 10 11 10 9 6 3 360 357 355 355 355 355 356 358 0 2 2 2 2 3 3 3 5 6 5 5 4 3 4 6 8 10 12 13 13 14 19 21 19 14 7 359 354 349 347 346 348 350 353 356 3 18 38 53 62 66 64 60 55 50 44
3 4 4 5 7 10 12 12 12 11 10 8 5 2 359 357 356 356 356 357 359 2 4 6 5 5 5 6 7 8 9 11 10 9 8 9 10 13 16 20 23 25 25 24 28 33 33 31 29 25 22 17 13 12 14 17 21 26 36 50 64 70 72 70 66 61 55 50 44
4 5 6 8 10 13 15 14 13 12 10 8 5 2 359 358 357 357 358 360 3 6 8 9 9 8 9 9 11 12 14 15 15 14 13 13 14 17 21 26 30 34 36 36 39 42 43 44 44 44 45 44 43 41 40 40 40 43 48 56 61 64 62 59 54 49 45 40 36
5 6 8 11 15 17 17 15 13 11 9 7 4 1 359 359 359 359 1 3 6 9 10 11 11 12 12 13 15 17 18 18 19 19 18 19 19 21 24 29 33 38 42 45 48 50 52 53 54 54 54 53 53 52 51 50 50 50 51 51 50 48 46 42 38 34 29 25 21
6 8 11 15 19 20 19 16 13 11 8 6 4 1 360 0 1 2 4 7 10 12 13 13 13 14 15 16 18 20 22 23 23 23 23 24 24 24 25 28 31 36 41 47 51 54 56 57 58 58 58 58 58 58 57 57 56 55 54 51 49 46 43 39 36 33 30 27 22
8 10 13 18 21 22 19 16 13 10 8 5 3 1 1 2 4 6 8 9 12 14 16 16 15 16 17 19 21 24 25 26 26 25 26 28 29 28 27 27 27 29 33 41 47 51 55 57 58 59 59 59 59 59 58 58 57 55 53 50 47 44 40 37 34 32 31 31 30
9 12 16 20 22 22 19 16 13 10 7 5 3 2 2 4 7 9 11 11 13 15 17 18 18 18 18 20 23 25 27 28 28 28 29 30 31 31 30 28 25 23 24 30 36 41 45 49 52 55 56 55 55 54 53 52 51 50 48 46 42 38 34 29 25 22 22 25 27
10 13 17 21 22 21 18 15 12 9 7 5 3 3 4 6 9 11 13 14 15 16 18 19 20 20 20 21 23 26 28 29 30 31 32 32 33 33 33 31 26 21 19 23 27 31 34 37 41 45 47 49 49 48 47 47 46 45 44 41 38 33 28 22 17 12 11 14 19
11 14 18 21 22 20 17 14 11 9 7 4 4 4 6 8 11 13 13 15 16 17 18 19 20 21 21 22 24 26 29 31 32 33 34 34 34 34 34 32 29 22 17 18 22 25 27 29 31 34 38 40 42 43 43 44 44 43 42 40 36 33 28 23 17 13 11 12 15
11 15 18 20 20 18 16 13 10 8 6 4 4 5 7 10 12 13 14 14 16 17 19 20 20 21 21 23 24 26 29 32 34 35 36 37 36 36 35 34 31 25 18 16 17 20 23 24 25 27 29 31 33 35 36 37 37 38 37 36 34 32 29 25 21 17 15 15 17
11 15 17 18 18 16 14 11 9 6 5 5 5 6 7 10 12 14 14 14 15 16 19 20 20 20 21 22 23 25 28 31 34 36 38 39 39 38 37 36 33 28 21 16 15 17 20 22 22 23 23 25 26 27 28 29 28 28 28 28 28 27 26 23 21 18 17 17 17
10 13 15 16 16 14 11 9 7 6 5 5 6 6 7 9 11 13 14 14 14 15 17 19 20 20 20 21 22 23 25 29 32 36 38 40 41 40 39 38 36 32 26 19 14 14 16 18 19 19 19 20 20 20 20 20 20 20 20 21 21 22 23 22 21 21 21 20 20
9 11 13 14 13 11 8 6 5 4 5 5 6 6 7 8 9 11 12 13 13 15 16 18 19 20 20 21 21 21 23 25 29 33 37 40 41 42 41 40 38 35 30 24 18 15 14 15 16 16 16 17 17 16 15 14 14 14 14 15 16 17 19 20 21 22 23 24 24
9 10 11 11 9 6 4 3 3 4 4 5 5 6 6 7 8 9 10 11 11 13 15 16 17 19 20 21 21 21 21 22 24 27 31 35 38 40 41 41 40 36 32 28 24 20 17 16 16 15 15 15 15 15 14 13 11 10 9 9 10 12 13 16 18 19 20 21 23
9 10 10 8 5 2 0 360 1 2 4 4 4 4 5 6 6 6 6 7 9 11 12 14 15 17 18 19 20 20 20 20 21 23 25 28 31 34 37 40 41 38 33 28 27 25 22 19 18 17 17 16 16 15 15 13 11 9 7 6 6 7 8 10 13 15 15 15 16
9 10 9 6 1 358 357 357 358 360 1 2 2 3 4 4 5 5 4 5 6 8 10 12 13 14 15 17 18 19 19 20 20 20 21 22 24 27 30 34 39 39 35 29 27 26 25 23 21 21 20 19 18 18 17 16 14 11 8 6 4 4 4 5 7 9 10 7 7
11 10 8 4 359 356 354 353 354 357 359 0 1 1 2 2 3 3 3 3 4 5 7 9 10 11 12 14 15 16 17 18 19 19 19 19 19 21 23 26 32 37 36 32 27 25 25 24 24 23 23 22 22 21 21 19 18 15 12 10 7 4 2 1 1 1 1 360 358
12 11 7 3 359 356 353 351 352 354 356 358 358 358 359 0 1 2 2 3 3 4 5 6 7 8 9 10 12 13 14 15 17 17 17 16 16 17 17 18 22 28 34 33 27 24 23 24 24 24 24 25 25 24 24 23 21 19 17 14 12 8 5 2 359 356 353 352 353
13 11 8 5 1 358 354 352 351 351 352 354 355 355 356 358 359 0 1 2 3 3 3 3 3 3 4 6 8 10 11 12 14 14 15 15 14 14 13 12 13 18 26 32 27 22 21 21 22 23 24 25 26 26 26 25 23 22 20 18 16 13 10 7 2 356 351 349 350
13 12 9 7 4 1 358 354 351 349 349 350 351 352 353 355 356 358 359 1 2 3 2 1 0 359 0 2 4 6 7 9 10 11 12 12 12 12 11 10 10 13 19 26 25 21 19 18 19 20 22 24 25 26 26 25 25 24 22 20 18 16 14 11 8 3 357 352 352
12 11 9 8 5 3 0 357 353 350 347 347 348 349 351 353 354 356 357 358 0 1 2 1 360 359 358 359 359 1 3 5 6 7 8 9 10 10 10 10 10 11 14 18 21 20 17 15 16 17 18 20 22 24 25 24 24 23 22 21 19 17 15 14 12 9 5 360 0
10 9 8 7 6 4 2 360 356 352 348 346 346 347 348 350 352 354 355 356 358 359 0 1 0 359 358 357 356 357 358 360 1 3 4 5 6 8 8 9 10 10 10 10 15 17 15 13 13 13 15 16 19 21 23 23 23 22 21 20 19 18 16 14 13 12 10 8 10
8 7 6 6 5 4 3 1 358 354 350 347 345 345 346 348 350 352 354 355 356 358 359 360 359 358 357 355 354 353 353 355 356 358 359 0 2 4 6 8 8 9 8 8 10 12 12 11 10 10 11 13 15 17 20 21 21 21 20 19 18 17 16 14 13 13 12 13 15
6 5 5 5 4 4 4 2 0 357 353 349 346 344 345 346 348 351 353 354 355 356 357 358 358 358 357 356 354 352 350 350 351 352 354 355 357 359 2 5 7 7 7 7 5 6 8 10 9 8 8 9 11 14 17 19 20 19 18 18 17 16 16 14 13 13 13 14 17
5 4 4 3 4 4 4 3 1 359 356 352 348 345 344 345 347 350 352 353 354 354 355 357 358 358 359 358 357 354 351 349 348 348 349 349 351 354 357 1 4 6 6 5 1 2 4 6 7 7 6 5 7 10 14 16 18 18 17 16 16 15 15 14 13 12 13 14 18
4 3 2 2 3 4 4 3 2 0 358 355 350 346 344 344 346 349 351 352 352 352 353 355 356 358 360 0 360 358 354 351 348 346 346 346 346 348 351 356 0 3 4 3 1 0 0 1 5 6 5 3 4 7 11 14 16 16 15 15 15 14 14 13 13 13 13 15 18
2 2 1 1 2 3 4 3 2 1 359 357 353 348 344 343 345 347 350 351 351 351 351 353 354 357 360 1 1 0 357 353 349 347 345 344 344 344 346 350 355 359 1 2 3 359 356 359 3 5 4 2 2 4 8 12 14 15 14 14 13 13 13 12 12 13 14 16 18
1 1 0 0 1 2 3 3 2 1 360 358 354 350 345 342 343 346 349 351 351 350 350 350 352 355 358 360 1 0 359 357 353 350 347 345 343 343 343 345 349 354 357 360 1 358 356 359 1 3 3 3 1 2 5 10 13 13 13 12 12 12 12 11 12 13 15 17 17
360 360 360 360 0 1 2 3 2 1 0 358 355 351 347 343 343 345 347 349 349 349 349 348 349 351 354 356 357 358 359 359 357 354 351 348 345 343 342 342 345 349 353 357 359 358 357 358 359 1 3 4 2 1 2 7 11 12 12 11 10 11 11 11 11 13 15 17 17
358 358 359 359 359 0 1 2 2 2 1 359 356 353 349 345 343 343 343 345 347 348 348 347 346 347 349 351 351 353 355 357 358 357 354 351 348 345 342 341 342 346 350 354 357 357 356 355 356 358 1 3 3 1 0 4 8 11 11 10 9 9 10 10 11 13 15 16 17
356 357 357 358 359 359 360 1 2 2 1 360 357 355 351 347 343 340 339 341 343 345 346 345 344 344 345 346 346 346 349 353 356 357 356 353 350 347 344 342 342 344 347 352 355 357 357 355 354 354 357 1 2 1 359 1 5 8 9 8 8 8 9 9 10 12 14 15 16
Height
1534 1532 1530 1529 1527 1525 1524 1522 1521 1519 1518 1516 1514 1512 1511 1509 1508 1506 1504 1502 1500 1498 1495 1493 1491 1489 1486 1484 1482 1479 1476 1473 1470 1468 1466 1464 1462 1460 1458 1456 1455 1453 1452 1450 1449 1448 1447 1446 1445 1444 1443 1442 1441 1440 1439 1439 1439 1438 1438 1437 1437 1436 1436 1435 1434 1434 1434 1434 1434
1534 1532 1531 1529 1528 1525 1524 1522 1521 1519 1518 1516 1514 1513 1511 1510 1508 1506 1504 1502 1501 1498 1496 1493 1491 1488 1486 1484 1481 1478 1475 1472 1469 1467 1464 1463 1460 1459 1457 1454 1453 1451 1450 1449 1447 1446 1445 1444 1443 1442 1441 1440 1439 1439 1438 1438 1437 1437 1436 1436 1436 1435 1434 1434 1434 1433 1433 1433 1433
1534 1533 1531 1529 1527 1525 1524 1522 1521 1519 1518 1516 1515 1513 1512 1510 1509 1507 1505 1503 1501 1499 1496 1493 1490 1488 1486 1483 1480 1477 1474 1471 1468 1465 1463 1461 1459 1456 1454 1453 1451 1449 1448 1446 1445 1444 1443 1442 1442 1441 1440 1439 1438 1437 1437 1436 1436 1436 1435 1435 1435 1434 1434 1434 1433 1433 1432 1432 1431
1534 1533 1531 1529 1527 1525 1524 1522 1521 1519 1518 1516 1515 1514 1512 1511 1509 1507 1505 1503 1501 1498 1496 1493 1491 1488 1485 1483 1479 1476 1473 1470 1467 1465 1462 1459 1457 1454 1452 1450 1448 1447 1445 1444 1443 1442 1441 1441 1440 1439 1438 1437 1437 1436 1435 1435 1435 1435 1435 1434 1434 1434 1433 1433 1432 1432 1431 1430 1429
1534 1533 1531 1529 1527 1525 1524 1523 1521 1519 1518 1516 1515 1514 1513 1511 1509 1507 1505 1503 1500 1498 1495 1493 1491 1488 1485 1482 1479 1475 1472 1469 1467 1464 1461 1458 1454 1452 1450 1448 1446 1444 1443 1442 1441 1440 1439 1439 1438 1437 1437 1436 1435 1435 1434 1434 1434 1434 1434 1433 1433 1432 1432 1431 1431 1430 1429 1428 1428
1534 1532 1530 1529 1527 1525 1524 1523 1521 1520 1518 1517 1515 1514 1513 1511 1509 1508 1505 1503 1500 1498 1495 1493 1491 1488 1485 1481 1478 1475 1472 1469 1466 1463 1459 1456 1453 1450 1447 1445 1443 1441 1440 1439 1438 1437 1437 1437 1436 1436 1435 1435 1434 1434 1434 1434 1433 1433 1433 1432 1432 1431 1431 1430 1429 1429 1428 1427 1427
1534 1532 1530 1528 1527 1525 1524 1522 1521 1519 1518 1517 1515 1514 1513 1511 1509 1508 1505 1503 1500 1497 1495 1493 1490 1487 1484 1481 1478 1475 1471 1468 1465 1462 1458 1455 1451 1448 1445 1443 1440 1438 1437 1436 1435 1435 1435 1435 1434 1434 1434 1434 1434 1433 1433 1433 1432 1432 1431 1431 1431 1430 1429 1429 1428 1428 1427 1427 1426
1534 1532 1530 1529 1527 1525 1524 1522 1521 1519 1518 1517 1516 1515 1513 1511 1509 1507 1505 1503 1500 1497 1495 1493 1490 1487 1484 1481 1479 1475 1472 1468 1464 1461 1457 1454 1450 1447 1444 1440 1438 1435 1434 1433 1432 1432 1432 1433 1433 1433 1432 1432 1432 1432 1432 1432 1431 1431 1430 1430 1429 1429 1429 1428 1428 1427 1427 1426 1426
1533 1531 1530 1528 1527 1525 1524 1522 1521 1519 1518 1517 1516 1515 1513 1511 1509 1507 1505 1502 1500 1498 1495 1492 1490 1487 1484 1482 1479 1475 1472 1468 1465 1461 1458 1454 1450 1446 1443 1439 1437 1434 1432 1431 1430 1430 1430 1431 1431 1431 1431 1431 1431 1431 1431 1431 1430 1430 1430 1429 1429 1428 1428 1428 1427 1427 1427 1426 1426
1533 1531 1529 1528 1526 1525 1524 1522 1521 1520 1519 1518 1516 1515 1513 1511 1509 1507 1505 1502 1500 1498 1495 1492 1490 1487 1485 1482 1479 1476 1472 1469 1465 1462 1459 1455 1451 1447 1444 1440 1437 1434 1431 1429 1429 1429 1429 1429 1429 1429 1429 1429 1430 1430 1430 1430 1429 1429 1429 1429 1429 1428 1428 1428 1428 1427 1427 1427 1426
1532 1531 1529 1527 1526 1525 1523 1522 1521 1520 1519 1518 1516 1514 1513 1511 1509 1507 1504 1502 1500 1498 1495 1493 1490 1488 1485 1482 1479 1476 1473 1470 1467 1463 1460 1456 1453 1449 1446 1443 1439 1435 1431 1429 1428 1428 1428 1428 1428 1429 1429 1429 1429 1429 1429 1429 1429 1429 1429 1429 1429 1429 1429 1428 1428 1427 1427 1426 1426
1532 1530 1529 1528 1526 1525 1524 1522 1521 1520 1519 1518 1516 1514 1513 1511 1509 1507 1504 1502 1500 1498 1495 1493 1491 1489 1486 1483 1480 1477 1474 1471 1468 1464 1461 1458 1454 1451 1448 1445 1442 1437 1433 1430 1429 1428 1428 1429 1429 1429 1429 1430 1430 1430 1430 1430 1430 1430 1430 1429 1429 1429 1429 1428 1428 1427 1427 1426 1426
1532 1530 1529 1528 1526 1525 1524 1523 1521 1520 1519 1518 1516 1514 1512 1511 1509 1506 1504 1502 1500 1498 1496 1494 1492 1489 1487 1484 1481 1478 1475 1472 1469 1466 1463 1459 1456 1454 1451 1449 1445 1441 1437 1434 1432 1431 1430 1430 1430 1431 1431 1431 1431 1431 1431 1431 1431 1431 1431 1430 1430 1430 1429 1429 1428 1428 1427 1426 1426
1532 1530 1529 1528 1526 1525 1524 1523 1522 1520 1519 1518 1516 1514 1512 1510 1509 1506 1504 1502 1500 1499 1496 1494 1492 1490 1488 1485 1482 1479 1476 1473 1470 1467 1464 1462 1458 1456 1454 1452 1449 1445 1442 1439 1436 1435 1434 1434 1433 1433 1433 1433 1432 1432 1432 1432 1432 1432 1432 1431 1431 1431 1430 1429 1429 1428 1428 1427 1426
1532 1531 1529 1528 1527 1525 1524 1523 1522 1521 1519 1518 1516 1514 1513 1511 1509 1507 1505 1503 1501 1499 1497 1495 1493 1490 1488 1486 1483 1480 1477 1474 1471 1469 1466 1463 1460 1458 1456 1455 1453 1450 1447 1444 1441 1439 1438 1437 1436 1435 1435 1435 1435 1434 1434 1434 1434 1433 1433 1432 1432 1431 1431 1430 1429 1429 1428 1428 1427
1532 1531 1529 1528 1527 1526 1524 1524 1522 1521 1519 1518 1516 1515 1513 1511 1509 1507 1505 1503 1501 1500 1498 1496 1493 1491 1489 1486 1484 1481 1478 1475 1473 1470 1468 1465 1463 1460 1459 1457 1456 1454 1451 1449 1446 1444 1442 1441 1440 1439 1438 1438 1437 1437 1436 1435 1435 1434 1434 1433 1433 1432 1431 1430 1430 1429 1429 1428 1427
1532 1531 1529 1528 1527 1526 1525 1524 1523 1521 1520 1518 1517 1515 1513 1512 1509 1508 1506 1504 1502 1500 1498 1496 1494 1491 1489 1487 1484 1482 1479 1476 1474 1471 1469 1467 1465 1463 1461 1459 1459 1457 1454 1452 1450 1449 1447 1445 1444 1443 1441 1440 1440 1439 1438 1437 1436 1436 1435 1434 1434 1433 1432 1432 1431 1430 1429 1428 1427
1532 1531 1530 1529 1527 1526 1525 1524 1523 1522 1520 1519 1517 1515 1514 1512 1510 1508 1507 1505 1503 1501 1499 1497 1494 1492 1490 1488 1486 1483 1480 1478 1475 1473 1471 1469 1467 1465 1464 1462 1462 1460 1457 1455 1454 1452 1451 1449 1448 1446 1445 1444 1443 1442 1441 1440 1439 1438 1437 1436 1436 1435 1434 1433 1432 1431 1430 1429 1428
1532 1531 1530 1529 1527 1526 1525 1524 1523 1522 1520 1519 1518 1516 1514 1513 1511 1509 1507 1505 1504 1502 1499 1497 1495 1493 1491 1489 1487 1484 1482 1479 1477 1475 1473 1471 1469 1467 1465 1464 1463 1462 1460 1458 1456 1455 1454 1452 1451 1449 1448 1447 1445 1444 1443 1442 1441 1440 1439 1438 1437 1436 1435 1434 1433 1432 1431 1430 1429
1533 1531 1530 1529 1527 1526 1525 1524 1523 1522 1521 1519 1518 1516 1515 1513 1511 1509 1508 1506 1504 1502 1500 1498 1496 1494 1492 1490 1488 1486 1484 1481 1479 1477 1474 1473 1471 1469 1467 1466 1464 1463 1462 1459 1458 1457 1455 1454 1453 1451 1450 1449 1447 1446 1445 1444 1443 1441 1440 1439 1439 1438 1436 1435 1434 1433 1432 1431 1430
1533 1531 1530 1529 1528 1526 1525 1524 1524 1522 1521 1520 1518 1517 1515 1513 1512 1510 1508 1506 1505 1503 1501 1499 1496 1494 1492 1490 1489 1487 1485 1483 1480 1478 1476 1474 1472 1471 1469 1467 1465 1464 1463 1461 1459 1458 1456 1455 1454 1452 1451 1449 1448 1447 1445 1444 1443 1442 1441 1440 1439 1439 1437 1436 1435 1434 1433 1432 1430
1533 1532 1530 1529 1528 1527 1526 1525 1524 1523 1521 1520 1519 1517 1515 1514 1512 1510 1509 1507 1505 1504 1501 1499 1497 1495 1493 1491 1489 1488 1486 1484 1482 1480 1478 1475 1474 1472 1470 1469 1467 1466 1465 1463 1461 1459 1457 1456 1454 1453 1451 1450 1449 1447 1446 1445 1444 1443 1442 1441 1440 1439 1438 1437 1436 1434 1433 1432 1431
1533 1532 1530 1529 1528 1527 1526 1525 1524 1523 1521 1520 1519 1517 1515 1514 1512 1511 1509 1508 1506 1504 1502 1500 1498 1496 1494 1492 1490 1489 1487 1485 1483 1481 1479 1477 1475 1473 1471 1470 1468 1467 1466 1465 1463 1460 1458 1456 1455 1454 1452 1450 1449 1448 1447 1445 1444 1443 1442 1441 1440 1439 1438 1437 1436 1435 1434 1432 1431
1533 1532 1530 1529 1528 1527 1526 1525 1524 1523 1521 1520 1519 1517 1516 1514 1513 1511 1509 1508 1506 1504 1503 1500 1499 1497 1495 1493 1491 1489 1488 1486 1484 1482 1480 1478 1476 1474 1472 1471 1469 1469 1468 1467 1465 1462 1459 1457 1456 1454 1453 1451 1450 1449 1447 1446 1445 1444 1442 1441 1440 1439 1439 1437 1436 1435 1433 1432 1431
1533 1532 1530 1529 1528 1527 1526 1525 1524 1522 1521 1520 1519 1517 1516 1514 1513 1511 1510 1508 1507 1505 1503 1501 1499 1497 1495 1494 1492 1490 1489 1487 1484 1482 1480 1479 1477 1474 1473 1472 1470 1469 1469 1468 1467 1464 1461 1459 1457 1455 1454 1452 1451 1449 1448 1447 1445 1444 1443 1442 1441 1439 1438 1437 1436 1434 1433 1431 1430
1533 1532 1530 1529 1528 1527 1526 1525 1524 1523 1521 1520 1519 1517 1516 1514 1513 1511 1510 1509 1507 1505 1503 1501 1499 1498 1496 1494 1492 1491 1489 1487 1485 1483 1481 1479 1477 1475 1474 1472 1471 1470 1470 1469 1467 1465 1463 1461 1459 1457 1455 1453 1452 1450 1449 1447 1446 1445 1444 1442 1441 1439 1438 1437 1436 1434 1433 1431 1429
1533 1532 1530 1529 1528 1527 1526 1525 1524 1522 1521 1520 1519 1517 1516 1514 1513 1511 1510 1509 1507 1505 1504 1502 1500 1498 1496 1494 1493 1491 1489 1488 1486 1484 1483 1481 1479 1477 1475 1473 1472 1471 1471 1470 1468 1466 1464 1462 1460 1458 1456 1454 1453 1451 1449 1448 1447 1445 1444 1443 1441 1440 1439 1437 1436 1434 1433 1431 1429
1533 1532 1531 1529 1528 1527 1526 1524 1523 1522 1521 1519 1518 1517 1516 1514 1513 1512 1510 1509 1507 1505 1504 1502 1500 1499 1497 1495 1494 1492 1490 1489 1487 1485 1484 1482 1480 1478 1476 1474 1473 1472 1472 1471 1469 1466 1465 1463 1461 1459 1458 1455 1454 1452 1450 1449 1447 1446 1444 1443 1442 1440 1439 1437 1436 1434 1433 1431 1429
1534 1532 1531 1529 1528 1527 1525 1524 1523 1522 1521 1519 1518 1517 1516 1514 1513 1512 1510 1509 1507 1505 1504 1502 1500 1499 1498 1496 1494 1492 1491 1489 1488 1486 1484 1483 1481 1479 1477 1475 1473 1472 1472 1472 1469 1467 1465 1464 1462 1460 1459 1457 1455 1453 1452 1450 1448 1447 1445 1444 1442 1441 1439 1438 1436 1435 1433 1432 1430
1534 1532 1531 1529 1528 1527 1525 1524 1523 1522 1520 1519 1518 1517 1516 1514 1513 1512 1510 1509 1507 1505 1504 1503 1501 1499 1498 1496 1494 1493 1491 1490 1488 1487 1485 1483 1481 1480 1478 1476 1474 1473 1473 1473 1469 1467 1466 1464 1463 1461 1460 1458 1456 1454 1453 1451 1449 1448 1446 1445 1443 1442 1440 1438 1437 1435 1434 1432 1430
1534 1533 1531 1529 1528 1526 1525 1524 1522 1521 1520 1519 1518 1517 1515 1514 1513 1511 1510 1509 1507 1506 1504 1503 1501 1500 1498 1497 1495 1493 1492 1490 1489 1487 1485 1484 1482 1480 1479 1477 1475 1474 1473 1473 1470 1468 1466 1465 1464 1462 1461 1459 1457 1455 1454 1452 1450 1449 1447 1446 1444 1442 1441 1439 1437 1435 1434 1432 1431
1534 1533 1531 1529 1528 1526 1525 1523 1522 1521 1520 1519 1518 1516 1515 1514 1513 1511 1510 1509 1508 1506 1504 1503 1501 1499 1498 1496 1495 1493 1492 1490 1489 1487 1486 1484 1483 1481 1479 1478 1476 1474 1473 1472 1472 1469 1466 1465 1464 1463 1461 1460 1458 1456 1454 1453 1451 1450 1448 1447 1445 1443 1441 1439 1438 1436 1434 1433 1431
1534 1533 1531 1529 1528 1526 1524 1523 1522 1520 1519 1518 1517 1516 1515 1514 1513 1511 1510 1509 1507 1506 1504 1503 1501 1499 1498 1496 1495 1493 1492 1490 1489 1488 1486 1485 1483 1482 1480 1479 1477 1475 1474 1472 1472 1470 1468 1465 1464 1463 1462 1460 1459 1457 1455 1454 1452 1450 1449 1447 1445 1444 1442 1440 1439 1437 1435 1433 1431
1534 1533 1531 1529 1528 1526 1524 1523 1521 1520 1519 1518 1517 1515 1514 1513 1512 1511 1510 1509 1507 1506 1504 1503 1501 1500 1498 1497 1495 1494 1492 1490 1489 1488 1486 1485 1483 1482 1480 1479 1477 1475 1474 1473 1472 1471 1469 1465 1464 1463 1462 1460 1459 1457 1455 1454 1452 1450 1449 1448 1446 1444 1443 1441 1439 1437 1435 1434 1432
1534 1532 1531 1529 1528 1526 1524 1523 1521 1520 1519 1517 1516 1515 1514 1513 1512 1511 1509 1509 1507 1506 1505 1503 1502 1500 1499 1497 1496 1494 1492 1490 1489 1488 1486 1485 1484 1482 1481 1479 1477 1476 1474 1473 1472 1471 1469 1467 1464 1463 1462 1460 1459 1458 1456 1454 1452 1451 1449 1448 1446 1445 1443 1442 1440 1438 1436 1434 1432
1534 1532 1531 1529 1528 1526 1524 1523 1521 1519 1518 1517 1516 1514 1514 1513 1512 1510 1509 1508 1507 1506 1504 1503 1502 1500 1499 1497 1495 1494 1492 1491 1489 1488 1487 1485 1484 1482 1481 1479 1478 1476 1475 1473 1472 1471 1470 1468 1464 1462 1462 1460 1459 1458 1456 1454 1453 1451 1450 1448 1447 1445 1444 1442 1440 1439 1437 1434 1433
1534 1532 1531 1529 1528 1526 1524 1523 1521 1519 1518 1517 1515 1514 1513 1512 1511 1510 1509 1508 1507 1505 1504 1503 1501 1500 1499 1497 1496 1494 1493 1491 1489 1488 1486 1485 1484 1482 1481 1479 1478 1477 1475 1474 1472 1470 1470 1469 1465 1463 1461 1460 1459 1458 1456 1455 1453 1452 1450 1449 1447 1446 1444 1442 1441 1439 1437 1435 1433
1534 1533 1531 1529 1528 1526 1524 1523 1521 1519 1518 1516 1515 1514 1513 1512 1511 1510 1509 1508 1506 1505 1504 1503 1501 1500 1499 1497 1496 1494 1493 1492 1490 1488 1486 1485 1484 1482 1481 1479 1478 1477 1475 1474 1472 1470 1469 1469 1467 1464 1461 1460 1459 1458 1456 1455 1454 1452 1450 1449 1448 1446 1444 1443 1441 1439 1437 1435 1433
1534 1533 1531 1529 1528 1526 1524 1523 1521 1519 1518 1516 1515 1514 1513 1512 1511 1509 1509 1508 1506 1505 1504 1503 1501 1500 1499 1498 1496 1495 1493 1492 1490 1489 1487 1485 1484 1482 1481 1479 1478 1477 1476 1474 1473 1471 1469 1468 1468 1465 1461 1460 1459 1458 1457 1455 1454 1452 1451 1449 1448 1446 1444 1443 1441 1439 1437 1435 1434
1534 1533 1531 1530 1528 1526 1525 1523 1522 1520 1518 1517 1515 1514 1513 1511 1510 1509 1509 1508 1506 1505 1504 1503 1501 1500 1499 1498 1496 1494 1493 1492 1490 1489 1487 1485 1484 1483 1481 1479 1478 1477 1476 1474 1473 1471 1469 1468 1467 1465 1463 1460 1459 1458 1457 1456 1454 1453 1451 1449 1448 1446 1444 1443 1441 1439 1437 1435 1433
1534 1533 1532 1530 1528 1527 1525 1523 1522 1520 1519 1517 1515 1514 1513 1511 1510 1509 1508 1507 1506 1505 1504 1503 1501 1500 1499 1498 1496 1494 1493 1492 1490 1489 1487 1485 1484 1482 1481 1479 1478 1477 1475 1474 1473 1472 1470 1468 1467 1466 1464 1460 1459 1458 1457 1456 1454 1453 1451 1450 1448 1446 1444 1442 1440 1439 1437 1434 1433